Retour au catalogue

HAWK-13C

ActifMilitaireSSO
NORAD 67393·PAYLOAD·🇺🇸 United States

Lancé Jan 11, 2026 depuis Vandenberg Space Force Base

Loading…

Prochains Passages (prochaines 24 heures)

TLE

FraisSource: Space-Track

Époque: Sep 13, 2026, 23:11 UTC

1 67393U 26004AG  26256.96648768  .00003482  00000-0  16593-3 0  9999
2 67393  97.4640 255.1674 0006490  41.8739 318.2991 15.19765264 37246

Suivez HAWK-13C en temps réel avec AllMySat

Download on the App Store